| time (UTC) | temp F | wind direction | speed knots | gust knots | rain 1hr in | rain 24hr in | rain mn in | humidity % | barometer mb |
| 20260502150805 | 55 | 255 | 2.6 | 4.3 | 0.00 | 0.00 | 0.00 | 31 | 1016.9 |
| 20260502123304 | 35 | 24 | 0.9 | 1.7 | 0.00 | 0.00 | 0.00 | 67 | 1015.2 |
| 20260502120304 | 34 | 24 | 0.0 | 0.9 | 0.00 | 0.00 | 0.00 | 67 | 1015.2 |
| 20260502111804 | 35 | 24 | 1.7 | 1.7 | 0.00 | 0.00 | 0.00 | 63 | 1015.2 |
| 20260502111304 | 35 | 24 | 0.9 | 1.7 | 0.00 | 0.00 | 0.00 | 63 | 1015.2 |
| 20260502105306 | 35 | 24 | 0.9 | 1.7 | 0.00 | 0.00 | 0.00 | 63 | 1015.2 |
| 20260502104804 | 35 | 24 | 1.7 | 2.6 | 0.00 | 0.00 | 0.00 | 62 | 1015.2 |
| 20260502103304 | 36 | 24 | 1.7 | 1.7 | 0.00 | 0.00 | 0.00 | 60 | 1015.2 |
| 20260502102804 | 36 | 24 | 0.0 | 0.0 | 0.00 | 0.00 | 0.00 | 59 | 1015.2 |
| 20260502100804 | 37 | 24 | 0.9 | 1.7 | 0.00 | 0.00 | 0.00 | 58 | 1015.2 |
| 20260502070304 | 44 | 37 | 0.9 | 1.7 | 0.00 | 0.00 | 0.00 | 43 | 1015.2 |
| 20260502065804 | 44 | 37 | 0.9 | 1.7 | 0.00 | 0.00 | 0.00 | 43 | 1015.2 |
| 20260502065306 | 44 | 37 | 0.9 | 1.7 | 0.00 | 0.00 | 0.00 | 43 | 1015.2 |
| 20260502063304 | 45 | 37 | 0.0 | 0.9 | 0.00 | 0.00 | 0.00 | 41 | 1015.2 |
| 20260502062804 | 46 | 37 | 0.0 | 0.0 | 0.00 | 0.00 | 0.00 | 39 | 1015.2 |
| 20260502060816 | 47 | 37 | 0.0 | 0.9 | 0.00 | 0.00 | 0.00 | 39 | 1015.2 |
| 20260502055804 | 47 | 37 | 0.0 | 0.9 | 0.00 | 0.00 | 0.00 | 38 | 1015.2 |
| 20260502053804 | 47 | 37 | 0.9 | 1.7 | 0.00 | 0.00 | 0.00 | 37 | 1015.2 |
| 20260502052306 | 47 | 37 | 0.9 | 1.7 | 0.00 | 0.00 | 0.00 | 37 | 1015.2 |
| 20260502051304 | 47 | 37 | 0.0 | 0.0 | 0.00 | 0.00 | 0.00 | 36 | 1015.2 |
| 20260502050804 | 48 | 37 | 0.0 | 0.0 | 0.00 | 0.00 | 0.00 | 36 | 1015.2 |
| 20260502045804 | 48 | 37 | 0.0 | 0.0 | 0.00 | 0.00 | 0.00 | 35 | 1015.2 |
| 20260502044304 | 48 | 37 | 0.0 | 0.0 | 0.00 | 0.00 | 0.00 | 34 | 1015.2 |
| 20260502043804 | 48 | 37 | 0.0 | 0.0 | 0.00 | 0.00 | 0.00 | 34 | 1015.2 |
| 20260502042306 | 48 | 37 | 0.0 | 0.0 | 0.00 | 0.00 | 0.00 | 30 | 1015.2 |
| 20260502041804 | 49 | 37 | 0.0 | 0.0 | 0.00 | 0.00 | 0.00 | 30 | 1015.2 |
| 20260502040804 | 49 | 37 | 0.0 | 0.0 | 0.00 | 0.00 | 0.00 | 30 | 1015.2 |
| 20260502035803 | 50 | 37 | 0.0 | 0.9 | 0.00 | 0.00 | 0.00 | 30 | 1015.2 |
| 20260502034804 | 50 | 37 | 0.0 | 0.9 | 0.00 | 0.00 | 0.00 | 29 | 1015.2 |
| 20260502033804 | 52 | 37 | 0.9 | 2.6 | 0.00 | 0.00 | 0.00 | 27 | 1015.2 |
| 20260502033303 | 52 | 37 | 1.7 | 2.6 | 0.00 | 0.00 | 0.00 | 27 | 1015.2 |
| 20260502031803 | 51 | 38 | 2.6 | 4.3 | 0.00 | 0.00 | 0.00 | 28 | 1015.2 |
| 20260502030303 | 52 | 44 | 0.9 | 2.6 | 0.00 | 0.00 | 0.00 | 26 | 1015.2 |
| 20260502025804 | 53 | 44 | 0.9 | 2.6 | 0.00 | 0.00 | 0.00 | 25 | 1015.2 |
| 20260502025306 | 53 | 34 | 1.7 | 4.3 | 0.00 | 0.00 | 0.00 | 26 | 1015.2 |
| 20260502024303 | 52 | 42 | 0.9 | 1.7 | 0.00 | 0.00 | 0.00 | 27 | 1015.2 |
| 20260502023804 | 53 | 42 | 0.9 | 1.7 | 0.00 | 0.00 | 0.00 | 27 | 1015.2 |
| 20260502023304 | 53 | 42 | 0.9 | 1.7 | 0.00 | 0.00 | 0.00 | 26 | 1015.2 |
| 20260502022803 | 54 | 44 | 0.9 | 2.6 | 0.00 | 0.00 | 0.00 | 25 | 1015.2 |
| 20260502022306 | 54 | 48 | 1.7 | 2.6 | 0.00 | 0.00 | 0.00 | 25 | 1015.2 |
| 20260502021305 | 56 | 34 | 0.9 | 2.6 | 0.00 | 0.00 | 0.00 | 23 | 1015.2 |
| 20260502020803 | 56 | 38 | 1.7 | 4.3 | 0.00 | 0.00 | 0.00 | 23 | 1015.2 |
| 20260502015804 | 57 | 34 | 1.7 | 2.6 | 0.00 | 0.00 | 0.00 | 23 | 1015.2 |
| 20260502015305 | 57 | 26 | 1.7 | 2.6 | 0.00 | 0.00 | 0.00 | 23 | 1015.2 |
| 20260502013303 | 59 | 20 | 4.3 | 7.0 | 0.00 | 0.00 | 0.00 | 21 | 1015.2 |
| 20260502011804 | 60 | 17 | 4.3 | 7.0 | 0.00 | 0.00 | 0.00 | 20 | 1015.2 |
| 20260502010804 | 60 | 352 | 4.3 | 7.8 | 0.00 | 0.00 | 0.00 | 20 | 1015.2 |
| 20260502010304 | 60 | 11 | 4.3 | 7.8 | 0.00 | 0.00 | 0.00 | 20 | 1015.2 |
| 20260502005804 | 60 | 344 | 4.3 | 7.8 | 0.00 | 0.00 | 0.00 | 20 | 1015.2 |
| 20260502005306 | 60 | 345 | 5.2 | 10.4 | 0.00 | 0.00 | 0.00 | 20 | 1015.2 |
| 20260502004804 | 60 | 43 | 4.3 | 10.4 | 0.00 | 0.00 | 0.00 | 19 | 1015.2 |
| 20260502004304 | 61 | 14 | 5.2 | 10.4 | 0.00 | 0.00 | 0.00 | 19 | 1015.2 |
| 20260502003803 | 61 | 29 | 4.3 | 13.9 | 0.00 | 0.00 | 0.00 | 19 | 1015.2 |
| 20260502002305 | 62 | 41 | 3.5 | 11.3 | 0.00 | 0.00 | 0.00 | 18 | 1015.2 |
| 20260502001303 | 63 | 20 | 2.6 | 4.3 | 0.00 | 0.00 | 0.00 | 17 | 1015.2 |
| 20260502000804 | 63 | 284 | 4.3 | 7.8 | 0.00 | 0.00 | 0.00 | 18 | 1015.2 |
| 20260501235804 | 62 | 349 | 6.1 | 12.2 | 0.00 | 0.00 | 0.00 | 17 | 1015.2 |
| 20260501234804 | 63 | 270 | 4.3 | 7.0 | 0.00 | 0.00 | 0.00 | 17 | 1015.2 |
| 20260501232804 | 63 | 6 | 4.3 | 10.4 | 0.00 | 0.00 | 0.00 | 16 | 1015.2 |
| 20260501232306 | 64 | 350 | 7.8 | 11.3 | 0.00 | 0.00 | 0.00 | 16 | 1015.2 |
| 20260501231304 | 63 | 320 | 6.1 | 11.3 | 0.00 | 0.00 | 0.00 | 16 | 1015.2 |
| 20260501230804 | 62 | 73 | 6.1 | 13.9 | 0.00 | 0.00 | 0.00 | 16 | 1015.2 |
| 20260501230304 | 63 | 349 | 6.1 | 10.4 | 0.00 | 0.00 | 0.00 | 16 | 1015.2 |
| 20260501224804 | 63 | 316 | 6.1 | 13.0 | 0.00 | 0.00 | 0.00 | 16 | 1015.2 |
| 20260501224304 | 63 | 16 | 7.8 | 13.0 | 0.00 | 0.00 | 0.00 | 16 | 1015.2 |
| 20260501223304 | 62 | 335 | 3.5 | 10.4 | 0.00 | 0.00 | 0.00 | 18 | 1015.2 |
| 20260501222804 | 62 | 24 | 2.6 | 8.7 | 0.00 | 0.00 | 0.00 | 18 | 1015.2 |
| 20260501221803 | 62 | 28 | 7.8 | 13.0 | 0.00 | 0.00 | 0.00 | 16 | 1015.2 |
| 20260501220804 | 62 | 55 | 5.2 | 11.3 | 0.00 | 0.00 | 0.00 | 17 | 1015.2 |
| 20260501220304 | 62 | 22 | 2.6 | 11.3 | 0.00 | 0.00 | 0.00 | 16 | 1015.2 |
| 20260501214304 | 63 | 16 | 6.1 | 13.9 | 0.00 | 0.00 | 0.00 | 17 | 1015.2 |
| 20260501213303 | 62 | 64 | 6.1 | 11.3 | 0.00 | 0.00 | 0.00 | 17 | 1015.2 |
| 20260501210803 | 62 | 130 | 2.6 | 8.7 | 0.00 | 0.00 | 0.00 | 18 | 1015.2 |
| 20260501210304 | 61 | 64 | 7.0 | 11.3 | 0.00 | 0.00 | 0.00 | 17 | 1015.2 |
| 20260501205803 | 61 | 51 | 7.0 | 12.2 | 0.00 | 0.00 | 0.00 | 18 | 1015.2 |
| 20260501205306 | 62 | 52 | 3.5 | 7.8 | 0.00 | 0.00 | 0.00 | 17 | 1015.2 |
| 20260501204804 | 63 | 9 | 5.2 | 10.4 | 0.00 | 0.00 | 0.00 | 17 | 1015.2 |
| 20260501204304 | 63 | 247 | 5.2 | 10.4 | 0.00 | 0.00 | 0.00 | 20 | 1015.2 |
| 20260501203304 | 61 | 8 | 5.2 | 10.4 | 0.00 | 0.00 | 0.00 | 19 | 1015.2 |
| 20260501201804 | 60 | 189 | 1.7 | 10.4 | 0.00 | 0.00 | 0.00 | 19 | 1015.2 |
| 20260501201304 | 61 | 64 | 6.1 | 14.8 | 0.00 | 0.00 | 0.00 | 18 | 1015.2 |
| 20260501200304 | 61 | 34 | 3.5 | 8.7 | 0.00 | 0.00 | 0.00 | 19 | 1015.2 |
| 20260501195306 | 61 | 349 | 4.3 | 8.7 | 0.00 | 0.00 | 0.00 | 21 | 1015.2 |
| 20260501193803 | 60 | 92 | 2.6 | 5.2 | 0.00 | 0.00 | 0.00 | 21 | 1015.2 |
| 20260501193304 | 61 | 185 | 4.3 | 7.0 | 0.00 | 0.00 | 0.00 | 20 | 1015.2 |
| 20260501192804 | 60 | 88 | 1.7 | 10.4 | 0.00 | 0.00 | 0.00 | 21 | 1015.2 |
| 20260501192306 | 62 | 250 | 6.1 | 11.3 | 0.00 | 0.00 | 0.00 | 21 | 1015.2 |
| 20260501191304 | 61 | 298 | 5.2 | 7.8 | 0.00 | 0.00 | 0.00 | 24 | 1015.2 |
| 20260501190803 | 60 | 159 | 1.7 | 5.2 | 0.00 | 0.00 | 0.00 | 22 | 1015.2 |
| 20260501185803 | 61 | 348 | 8.7 | 12.2 | 0.00 | 0.00 | 0.00 | 23 | 1015.2 |
| 20260501185306 | 61 | 269 | 6.1 | 10.4 | 0.00 | 0.00 | 0.00 | 24 | 1015.2 |
| 20260501184304 | 59 | 93 | 5.2 | 10.4 | 0.00 | 0.00 | 0.00 | 25 | 1015.2 |
| 20260501181304 | 57 | 19 | 2.6 | 5.2 | 0.00 | 0.00 | 0.00 | 28 | 1015.2 |
| 20260501174304 | 57 | 150 | 5.2 | 10.4 | 0.00 | 0.00 | 0.00 | 30 | 1015.2 |
| 20260501173304 | 56 | 74 | 4.3 | 7.0 | 0.00 | 0.00 | 0.00 | 29 | 1015.2 |
| 20260501170303 | 56 | 354 | 4.3 | 7.8 | 0.00 | 0.00 | 0.00 | 32 | 1015.2 |
| 20260501165804 | 56 | 21 | 1.7 | 5.2 | 0.00 | 0.00 | 0.00 | 31 | 1015.2 |
| 20260501165306 | 55 | 357 | 2.6 | 5.2 | 0.00 | 0.00 | 0.00 | 34 | 1015.2 |
| 20260501164804 | 54 | 53 | 2.6 | 6.1 | 0.00 | 0.00 | 0.00 | 35 | 1015.2 |
| 20260501164304 | 54 | 164 | 2.6 | 7.8 | 0.00 | 0.00 | 0.00 | 33 | 1015.2 |
| 20260501163303 | 55 | 339 | 2.6 | 7.0 | 0.00 | 0.00 | 0.00 | 35 | 1015.2 |
| 20260501162305 | 53 | 217 | 0.9 | 5.2 | 0.00 | 0.00 | 0.00 | 37 | 1015.2 |
| 20260501161804 | 54 | 251 | 4.3 | 10.4 | 0.00 | 0.00 | 0.00 | 37 | 1015.2 |